Regional Weather Roundup
Issued by NWS Columbia, SC

Home | Current Version | Previous Version | Text Only | Print | Product List | Glossary On
Versions: 1 2 3 4 5 6 7 8 9 10 11 12 13 14 15 16 17 18 19 20 21 22 23 24 25 26 27
000
ASUS42 KCAE 250210
RWRCAE
REGIONAL WEATHER ROUNDUP
NATIONAL WEATHER SERVICE COLUMBIA SC
1000 PM EDT WED AUG 24 2016

NOTE: "FAIR" INDICATES FEW OR NO CLOUDS BELOW 12,000 FEET WITH NO
SIGNIFICANT WEATHER AND/OR OBSTRUCTIONS TO VISIBILITY.

NOT ALL STATIONS ARE QUALITY CONTROLLED BY THE NATIONAL
WEATHER SERVICE. USE DATA WITH CAUTION...ESPECIALLY
DEWPOINT OBSERVATIONS.

SCZ001>056-GAZ040-063>065-077-250300-
...UPSTATE SOUTH CAROLINA...

CITY           SKY/WX    TMP DP  RH WIND       PRES   REMARKS
ANDERSON       CLEAR     75  71  87 CALM      30.22R
LIBERTY        CLEAR     72  70  95 CALM      30.23S
SPARTANBURG    CLEAR     73  68  83 CALM      30.22R
CLEMSON        CLEAR     76  69  79 CALM      30.24R
GREENVILLE     CLEAR     78  68  71 NW3       30.24R
GREENWOOD      CLEAR     74  69  85 NW3       30.23R
GREER          CLEAR     74  68  81 NW3       30.23R
ROCK HILL      MOCLDY    77  69  76 CALM      30.22R
CHESTER        CLEAR     73  68  83 CALM      30.22R
LAURENS        CLEAR     72  70  94 CALM      30.22R


...CENTRAL SOUTH CAROLINA...

CITY           SKY/WX    TMP DP  RH WIND       PRES   REMARKS
COLUMBIA APT   PTCLDY    81  65  58 CALM      30.19R
COLUMBIA OWENS CLEAR     79  67  66 CALM      30.20R
MCENTIRE ANGB  PTCLDY    73  65  76 CALM      30.20R
ORANGEBURG     CLEAR     76  68  76 CALM      30.20R
SUMTER SHAW    CLEAR     77  65  68 SE1       30.18R
NEWBERRY       CLOUDY    77  70  78 CALM      30.23S
AIKEN          FAIR      77  68  73 CALM      30.24R
MANNING        FAIR      72  64  78 CALM      30.20R
LANCASTER      MOCLDY    77  68  73 CALM      30.20S
WINNSBORO      CLEAR     77  66  69 SE5       30.21R


...EASTERN AND COASTAL SOUTH CAROLINA...

CITY           SKY/WX    TMP DP  RH WIND       PRES   REMARKS
MYRTLE BEACH   PTCLDY    79  57  47 NE6       30.21R
N MYRTLE BCH   PTCLDY    71  65  81 CALM      30.19R
CONWAY         FAIR      70  64  83 CALM      30.20R
MARION         FAIR      70  64  83 CALM      30.20R
HARTSVILLE     FAIR      73  63  68 CALM      30.21R
FLORENCE       PTCLDY    76  66  71 CALM      30.20R
CHARLESTON APT PTCLDY    78  65  63 SE5       30.19R
MOUNT PLEASANT FAIR      73  70  88 CALM      30.19R
WALTERBORO     CLEAR     77  66  69 CALM      30.20R
BEAUFORT       CLEAR     77  68  73 CALM      30.19R


...EASTERN GEORGIA...

CITY           SKY/WX    TMP DP  RH WIND       PRES   REMARKS
AUGUSTA BUSH F MOCLDY    76  72  87 SE6       30.19R
AUGUSTA DANIEL PTCLDY    81  69  67 N5        30.21R
THOMSON        PTCLDY    77  74  92 MISG      30.25R
WASHINGTON     FAIR      77  73  88 CALM      30.22R
CLAXTON        FAIR      76  70  82 CALM      30.19R
SYLVANIA       CLEAR    N/A N/A N/A CALM      30.20R
STATESBORO     CLEAR     78  70  76 CALM      30.20R
SAVANNAH       MOCLDY    78  65  63 E3        30.19R


...SOUTHERN NORTH CAROLINA...

CITY           SKY/WX    TMP DP  RH WIND       PRES   REMARKS
CHARLOTTE      MOCLDY    79  67  66 N3        30.22R
MONROE         MOCLDY    75  66  73 CALM      30.21R
WADESBORO      PTCLDY    73  64  74 CALM      30.21R
ROCKINGHAM     CLEAR     76  65  68 SE5       30.21R
RUTHERFORDTON    N/A     72  72  98 CALM      30.25R
ASHEVILLE      CLEAR     72  67  84 SE3       30.30R

$$




USA.gov is the U.S. government's official web portal to all federal, state and local government web resources and services.